Location: Ripley
(48.3812°N, 115.4473°W)
Time: 10:17:10
(UTC+00:00)

EO-88 - Pass Details

Date: 07 July 2022
Orbit: 454 x 462 km, 97.3° (Epoch: 07 August)

Event Time Altitude Azimuth Distance (km) Brightness Sun altitude
Exits shadow 06:12:08 - 226° (SW) 1,874 ? -15.9°
Reaches altitude 10° 06:13:08 10° 239° (WSW) 1,622 ? -16.0°
Maximum altitude 06:14:56 13° 270° (W) 1,423 ? -16.1°
Drops below altitude 10° 06:16:44 10° 301° (WNW) 1,628 ? -16.2°
Sets 06:19:40 0° 329° (NNW) 2,508 ? -16.4°
